User: anonymous   Login
Location: Unspecified
(0.0000°N, 0.0000°E)
Time: 22:28:11
(UTC+00:00)
Language:

NANOACE - Orbit

View from above orbital plane
View from above orbital plane
View from above satellite
View from above satellite

Ground track
Ground track

The orbit data is extracted from the following two-line orbital elements,

1 42844U 17042V   24109.51333456  .00013415  00000-0  10461-2 0  9990
2 42844  97.3638 300.3093 0008162 204.9158 155.1674 15.01261775368678
Epoch (UTC): 18 April 2024 12:19:12
Eccentricity: 0.0008162
inclination: 97.3638°
perigee height: 557 km
apogee height: 568 km
right ascension of ascending node: 300.3093°
argument of perigee: 204.9158°
revolutions per day: 15.01261775
mean anomaly at epoch: 155.1674°
orbit number at epoch: 36867

The dashed part of the orbit path shows where the satellite is in the earth's shadow,  

DLR